Weather in Savino

Russia / Perm Krai     58°10′56″N   54°58′47″E
temp.,
°C
wind,
m/s
gust,
m/s
humid.,
%
clouds,
%
prec.,
mm/h
press.,
hPa
HPBL,
m
28 february, sun
sun2823:00−16e41192100 0.2 1009465
02:00−18ene499599 0.1 1009414
05:00−19ene489699 0.1 1009335
08:00−19ne4896100 0.1 1009343
11:00−17ene4891100 0.1 1010468
14:00−15ne4788100 0.0 1010588
17:00−14ne4788100 0.1 1011634
20:00−16ne3696100 0.1 1013184
1 march, mon
mon123:00−20ne349872 0.1 101579
02:00−22ne23970 0.0 101650
05:00−22nne339822 0.0 101863
08:00−23nne239836 0.0 101926
11:00−18nne239218 0.0 1020188
14:00−13ne118477 0.0 1019407
17:00−13w118589 0.0 1018343
20:00−18ssw229555 0.0 101720
2 march, tue
tue223:00−19ssw339830 0.0 101669
02:00−18ssw489779 0.0 1013192
05:00−16s5119388 0.0 1011345
08:00−16s51295100 0.1 1008367
11:00−15s61194100 0.7 1006417
14:00−13s61193100 0.8 1004545
17:00−12s51093100 1.3 1003601
20:00−12s41095100 0.5 1002525
3 march, wed
wed323:00−12s3895100 0.9 1001398
02:00−11sse3795100 0.6 1000341
05:00−12sse2496100 0.9 1000140
08:00−12se1397100 0.6 1000110
11:00−9sse1192100 1.0 1000204
14:00−7nnw1288100 0.3 1000408
17:00−7nnw2391100 0.5 1000360
20:00−9nnw119799 0.1 100121
4 march, thu
thu423:00−8nnw3109599 0.5 1002482
02:00−9nnw499499 0.1 1003418
05:00−15nw369791 0.2 1004112
08:00−16wnw349984 0.0 100589
11:00−11wnw369386 0.1 1006306
14:00−7wnw368599 0.1 1006796
17:00−7w3584100 0.1 1006747
20:00−12sw369475 0.0 1005128